"Time","Value","Approval","myLocation"
"2023-05-06 00:00",18.4419807,"Working","OW443"
"2023-05-06 01:00",18.42943464,"Working","OW443"
"2023-05-06 02:00",18.41759058,"Working","OW443"
"2023-05-06 03:00",18.4110585,"Working","OW443"
"2023-05-06 04:00",18.41503841,"Working","OW443"
"2023-05-06 05:00",18.42394041,"Working","OW443"
"2023-05-06 06:00",18.43182043,"Working","OW443"
"2023-05-06 07:00",18.4404484,"Working","OW443"
"2023-05-06 08:00",18.44243242,"Working","OW443"
"2023-05-06 09:00",18.43872043,"Working","OW443"
"2023-05-06 10:00",18.42898647,"Working","OW443"
"2023-05-06 11:00",18.41050645,"Working","OW443"
"2023-05-06 12:00",18.38679446,"Working","OW443"
"2023-05-06 13:00",18.36677648,"Working","OW443"
"2023-05-06 14:00",18.34772842,"Working","OW443"
"2023-05-06 15:00",18.34307836,"Working","OW443"
"2023-05-06 16:00",18.34297836,"Working","OW443"
"2023-05-06 17:00",18.35141233,"Working","OW443"
"2023-05-06 18:00",18.36890833,"Working","OW443"
"2023-05-06 19:00",18.38871632,"Working","OW443"
"2023-05-06 20:00",18.40762831,"Working","OW443"
"2023-05-06 21:00",18.42114829,"Working","OW443"
"2023-05-06 22:00",18.44907226,"Working","OW443"
"2023-05-06 23:00",18.47416027,"Working","OW443"
"2023-05-07 00:00",18.49085228,"Working","OW443"
"2023-05-07 01:00",18.50207825,"Working","OW443"
"2023-05-07 02:00",18.50799224,"Working","OW443"
"2023-05-07 03:00",18.51103818,"Working","OW443"
"2023-05-07 04:00",18.52009212,"Working","OW443"
"2023-05-07 05:00",18.52808813,"Working","OW443"
"2023-05-07 06:00",18.5368101,"Working","OW443"
"2023-05-07 07:00",18.54633607,"Working","OW443"
"2023-05-07 08:00",18.54926604,"Working","OW443"
"2023-05-07 09:00",18.54639001,"Working","OW443"
"2023-05-07 10:00",18.535402,"Working","OW443"
"2023-05-07 11:00",18.51683796,"Working","OW443"
"2023-05-07 12:00",18.49404994,"Working","OW443"
"2023-05-07 13:00",18.46620188,"Working","OW443"
"2023-05-07 14:00",18.4436798,"Working","OW443"
"2023-05-07 15:00",18.42862974,"Working","OW443"
"2023-05-07 16:00",18.4217657,"Working","OW443"
"2023-05-07 17:00",18.42460166,"Working","OW443"
"2023-05-07 18:00",18.43519566,"Working","OW443"
"2023-05-07 19:00",18.44738967,"Working","OW443"
"2023-05-07 20:00",18.46041764,"Working","OW443"
"2023-05-07 21:00",18.46993162,"Working","OW443"
"2023-05-07 22:00",18.47873562,"Working","OW443"
"2023-05-07 23:00",18.47970565,"Working","OW443"
"2023-05-08 00:00",18.4748617,"Working","OW443"
"2023-05-08 01:00",18.46131576,"Working","OW443"
"2023-05-08 02:00",18.44396781,"Working","OW443"
"2023-05-08 03:00",18.42814384,"Working","OW443"
"2023-05-08 04:00",18.41895982,"Working","OW443"
"2023-05-08 05:00",18.41433984,"Working","OW443"
"2023-05-08 06:00",18.41612186,"Working","OW443"
"2023-05-08 07:00",18.4193879,"Working","OW443"
"2023-05-08 08:00",18.41846593,"Working","OW443"
"2023-05-08 09:00",18.41562597,"Working","OW443"
"2023-05-08 10:00",18.40738402,"Working","OW443"
"2023-05-08 11:00",18.39356404,"Working","OW443"
"2023-05-08 12:00",18.37542608,"Working","OW443"
"2023-05-08 13:00",18.35225605,"Working","OW443"
"2023-05-08 14:00",18.330796,"Working","OW443"
"2023-05-08 15:00",18.31874795,"Working","OW443"
"2023-05-08 16:00",18.30813196,"Working","OW443"
"2023-05-08 17:00",18.29895605,"Working","OW443"
"2023-05-08 18:00",18.30613407,"Working","OW443"
"2023-05-08 19:00",18.32354207,"Working","OW443"
"2023-05-08 20:00",18.3403121,"Working","OW443"
"2023-05-08 21:00",18.35246016,"Working","OW443"
"2023-05-08 22:00",18.35932819,"Working","OW443"
"2023-05-08 23:00",18.36243619,"Working","OW443"
"2023-05-09 00:00",18.35793818,"Working","OW443"
"2023-05-09 01:00",18.3481222,"Working","OW443"
"2023-05-09 02:00",18.33432819,"Working","OW443"
"2023-05-09 03:00",18.32007215,"Working","OW443"
"2023-05-09 04:00",18.30814207,"Working","OW443"
"2023-05-09 05:00",18.30270599,"Working","OW443"
"2023-05-09 06:00",18.29892597,"Working","OW443"
"2023-05-09 07:00",18.29845793,"Working","OW443"
"2023-05-09 08:00",18.29760188,"Working","OW443"
"2023-05-09 09:00",18.29991376,"Working","OW443"
"2023-05-09 10:00",18.29796969,"Working","OW443"
"2023-05-09 11:00",18.2922496,"Working","OW443"
"2023-05-09 12:00",18.2812395,"Working","OW443"
"2023-05-09 13:00",18.26682141,"Working","OW443"
"2023-05-09 14:00",18.2513153,"Working","OW443"
"2023-05-09 15:00",18.24248722,"Working","OW443"
"2023-05-09 16:00",18.2326072,"Working","OW443"
"2023-05-09 17:00",18.22772518,"Working","OW443"
"2023-05-09 18:00",18.23298511,"Working","OW443"
"2023-05-09 19:00",18.2480971,"Working","OW443"
"2023-05-09 20:00",18.26334515,"Working","OW443"
"2023-05-09 21:00",18.2789052,"Working","OW443"
"2023-05-09 22:00",18.29084527,"Working","OW443"
"2023-05-09 23:00",18.29786736,"Working","OW443"
"2023-05-10 00:00",18.29642141,"Working","OW443"
"2023-05-10 01:00",18.29081542,"Working","OW443"
"2023-05-10 02:00",18.2786294,"Working","OW443"
"2023-05-10 03:00",18.26415337,"Working","OW443"
"2023-05-10 04:00",18.25289932,"Working","OW443"
"2023-05-10 05:00",18.24389732,"Working","OW443"
"2023-05-10 06:00",18.23547734,"Working","OW443"
"2023-05-10 07:00",18.23156935,"Working","OW443"
"2023-05-10 08:00",18.22804338,"Working","OW443"
"2023-05-10 09:00",18.22880543,"Working","OW443"
"2023-05-10 10:00",18.22450143,"Working","OW443"
"2023-05-10 11:00",18.22070942,"Working","OW443"
"2023-05-10 12:00",18.20907346,"Working","OW443"
"2023-05-10 13:00",18.19680543,"Working","OW443"
"2023-05-10 14:00",18.18344139,"Working","OW443"
"2023-05-10 15:00",18.16905737,"Working","OW443"
"2023-05-10 16:00",18.15825337,"Working","OW443"
"2023-05-10 17:00",18.14674538,"Working","OW443"
"2023-05-10 18:00",18.1435274,"Working","OW443"
"2023-05-10 19:00",18.15787746,"Working","OW443"
"2023-05-10 20:00",18.1979435,"Working","OW443"
"2023-05-10 21:00",18.2464516,"Working","OW443"
"2023-05-10 22:00",18.29658967,"Working","OW443"
"2023-05-10 23:00",18.33812974,"Working","OW443"
"2023-05-11 00:00",18.3709758,"Working","OW443"
"2023-05-11 01:00",18.38972785,"Working","OW443"
"2023-05-11 02:00",18.40093984,"Working","OW443"
"2023-05-11 03:00",18.4151778,"Working","OW443"
"2023-05-11 04:00",18.44828568,"Working","OW443"
"2023-05-11 05:00",18.49892963,"Working","OW443"
"2023-05-11 06:00",18.55387757,"Working","OW443"
"2023-05-11 07:00",18.60731353,"Working","OW443"
"2023-05-11 08:00",18.65265748,"Working","OW443"
"2023-05-11 09:00",18.69341342,"Working","OW443"
"2023-05-11 10:00",18.72767135,"Working","OW443"
"2023-05-11 11:00",18.7559173,"Working","OW443"
"2023-05-11 12:00",18.77367723,"Working","OW443"
"2023-05-11 13:00",18.78063117,"Working","OW443"
"2023-05-11 14:00",18.78615903,"Working","OW443"
"2023-05-11 15:00",18.79056091,"Working","OW443"
"2023-05-11 16:00",18.78914481,"Working","OW443"
"2023-05-11 17:00",18.78839875,"Working","OW443"
"2023-05-11 18:00",18.78689476,"Working","OW443"
"2023-05-11 19:00",18.78978876,"Working","OW443"
"2023-05-11 20:00",18.7960608,"Working","OW443"
"2023-05-11 21:00",18.80620286,"Working","OW443"
"2023-05-11 22:00",18.81502295,"Working","OW443"
"2023-05-11 23:00",18.82815703,"Working","OW443"
"2023-05-12 00:00",18.8410931,"Working","OW443"
"2023-05-12 01:00",18.85134715,"Working","OW443"
"2023-05-12 02:00",18.85321319,"Working","OW443"
"2023-05-12 03:00",18.85172917,"Working","OW443"
"2023-05-12 04:00",18.8453971,"Working","OW443"
"2023-05-12 05:00",18.83655303,"Working","OW443"
"2023-05-12 06:00",18.82770897,"Working","OW443"
"2023-05-12 07:00",18.80935891,"Working","OW443"
"2023-05-12 08:00",18.7985548,"Working","OW443"
"2023-05-12 09:00",18.7890487,"Working","OW443"
"2023-05-12 10:00",18.77457267,"Working","OW443"
"2023-05-12 11:00",18.76531662,"Working","OW443"
"2023-05-12 12:00",18.75566856,"Working","OW443"
"2023-05-12 13:00",18.74404048,"Working","OW443"
"2023-05-12 14:00",18.73202638,"Working","OW443"
"2023-05-12 15:00",18.71912227,"Working","OW443"
"2023-05-12 16:00",18.70551617,"Working","OW443"
"2023-05-12 17:00",18.68714613,"Working","OW443"
"2023-05-12 18:00",18.66865412,"Working","OW443"
"2023-05-12 19:00",18.65275812,"Working","OW443"
"2023-05-12 20:00",18.63720818,"Working","OW443"
"2023-05-12 21:00",18.62896423,"Working","OW443"
"2023-05-12 22:00",18.62258631,"Working","OW443"
"2023-05-12 23:00",18.61940441,"Working","OW443"
"2023-05-13 00:00",18.61885247,"Working","OW443"
"2023-05-13 01:00",18.61981651,"Working","OW443"
"2023-05-13 02:00",18.62419453,"Working","OW443"
"2023-05-13 03:00",18.63093049,"Working","OW443"
"2023-05-13 04:00",18.63512438,"Working","OW443"
"2023-05-13 05:00",18.63388032,"Working","OW443"
"2023-05-13 06:00",18.62370429,"Working","OW443"
"2023-05-13 07:00",18.60994025,"Working","OW443"
"2023-05-13 08:00",18.60142416,"Working","OW443"
"2023-05-13 09:00",18.58704813,"Working","OW443"
"2023-05-13 10:00",18.57376211,"Working","OW443"
"2023-05-13 11:00",18.5667781,"Working","OW443"
"2023-05-13 12:00",18.55763403,"Working","OW443"
"2023-05-13 13:00",18.55041794,"Working","OW443"
"2023-05-13 14:00",18.55054579,"Working","OW443"
"2023-05-13 15:00",18.54418774,"Working","OW443"
"2023-05-13 16:00",18.53588175,"Working","OW443"
"2023-05-13 17:00",18.51840983,"Working","OW443"
"2023-05-13 18:00",18.50312393,"Working","OW443"
"2023-05-13 19:00",18.48228398,"Working","OW443"
"2023-05-13 20:00",18.4690741,"Working","OW443"
"2023-05-13 21:00",18.45785224,"Working","OW443"
"2023-05-13 22:00",18.4496124,"Working","OW443"
"2023-05-13 23:00",18.44456457,"Working","OW443"
"2023-05-14 00:00",18.44442872,"Working","OW443"
"2023-05-14 01:00",18.44489687,"Working","OW443"
"2023-05-14 02:00",18.46100098,"Working","OW443"
"2023-05-14 03:00",18.49346502,"Working","OW443"
"2023-05-14 04:00",18.54922295,"Working","OW443"
"2023-05-14 05:00",18.61825292,"Working","OW443"
"2023-05-14 06:00",18.68788288,"Working","OW443"
"2023-05-14 07:00",18.74557889,"Working","OW443"
"2023-05-14 08:00",18.78753494,"Working","OW443"
"2023-05-14 09:00",18.82140697,"Working","OW443"
"2023-05-14 10:00",18.84423505,"Working","OW443"
"2023-05-14 11:00",18.86460509,"Working","OW443"
"2023-05-14 12:00",18.88157912,"Working","OW443"
"2023-05-14 13:00",18.8965931,"Working","OW443"
"2023-05-14 14:00",18.91320309,"Working","OW443"
"2023-05-14 15:00",18.92445315,"Working","OW443"
"2023-05-14 16:00",18.93016924,"Working","OW443"
"2023-05-14 17:00",18.93028334,"Working","OW443"
"2023-05-14 18:00",18.92720742,"Working","OW443"
"2023-05-14 19:00",18.92212951,"Working","OW443"
"2023-05-14 20:00",18.91063961,"Working","OW443"
"2023-05-14 21:00",18.89630976,"Working","OW443"
"2023-05-14 22:00",18.88528191,"Working","OW443"
"2023-05-14 23:00",18.87415605,"Working","OW443"
"2023-05-15 00:00",18.87547814,"Working","OW443"
"2023-05-15 01:00",18.87749623,"Working","OW443"
"2023-05-15 02:00",18.87904429,"Working","OW443"
"2023-05-15 03:00",18.88136227,"Working","OW443"
"2023-05-15 04:00",18.88553818,"Working","OW443"
"2023-05-15 05:00",18.88468813,"Working","OW443"
"2023-05-15 06:00",18.87389212,"Working","OW443"
"2023-05-15 07:00",18.85315217,"Working","OW443"
"2023-05-15 08:00",18.83284018,"Working","OW443"
"2023-05-15 09:00",18.8067242,"Working","OW443"
"2023-05-15 10:00",18.78328225,"Working","OW443"
"2023-05-15 11:00",18.75985028,"Working","OW443"
"2023-05-15 12:00",18.74327625,"Working","OW443"
"2023-05-15 13:00",18.73764218,"Working","OW443"
"2023-05-15 14:00",18.73555816,"Working","OW443"
"2023-05-15 15:00",18.73656216,"Working","OW443"
"2023-05-15 16:00",18.73837215,"Working","OW443"
"2023-05-15 17:00",18.73745816,"Working","OW443"
"2023-05-15 18:00",18.7275242,"Working","OW443"
"2023-05-15 19:00",18.71429823,"Working","OW443"
"2023-05-15 20:00",18.70284629,"Working","OW443"
"2023-05-15 21:00",18.68646238,"Working","OW443"
"2023-05-15 22:00",18.66828647,"Working","OW443"
"2023-05-15 23:00",18.65863053,"Working","OW443"
"2023-05-16 00:00",18.66119258,"Working","OW443"
"2023-05-16 01:00",18.67752665,"Working","OW443"
"2023-05-16 02:00",18.72101067,"Working","OW443"
"2023-05-16 03:00",18.80565262,"Working","OW443"
"2023-05-16 04:00",18.94267648,"Working","OW443"
"2023-05-16 05:00",19.08732043,"Working","OW443"
"2023-05-16 06:00",19.2172343,"Working","OW443"
"2023-05-16 07:00",19.33287192,"Working","OW443"
"2023-05-16 08:00",19.42563773,"Working","OW443"
"2023-05-16 09:00",19.48954173,"Working","OW443"
"2023-05-16 10:00",19.53585971,"Working","OW443"
"2023-05-16 11:00",19.57226559,"Working","OW443"
"2023-05-16 12:00",19.60390742,"Working","OW443"
"2023-05-16 13:00",19.63204327,"Working","OW443"
"2023-05-16 14:00",19.66152917,"Working","OW443"
"2023-05-16 15:00",19.68503716,"Working","OW443"
"2023-05-16 16:00",19.70931508,"Working","OW443"
"2023-05-16 17:00",19.73039498,"Working","OW443"
"2023-05-16 18:00",19.75083494,"Working","OW443"
"2023-05-16 19:00",19.76149299,"Working","OW443"
"2023-05-16 20:00",19.76233905,"Working","OW443"
"2023-05-16 21:00",19.7533072,"Working","OW443"
"2023-05-16 22:00",19.73623539,"Working","OW443"
"2023-05-16 23:00",19.71687757,"Working","OW443"
"2023-05-17 00:00",19.70045771,"Working","OW443"
"2023-05-17 01:00",19.69015982,"Working","OW443"
"2023-05-17 02:00",19.68291187,"Working","OW443"
"2023-05-17 03:00",19.68575982,"Working","OW443"
"2023-05-17 04:00",19.69501975,"Working","OW443"
"2023-05-17 05:00",19.70183573,"Working","OW443"
"2023-05-17 06:00",19.70195771,"Working","OW443"
"2023-05-17 07:00",19.69598168,"Working","OW443"
"2023-05-17 08:00",19.67559578,"Working","OW443"
"2023-05-17 09:00",19.65374972,"Working","OW443"
"2023-05-17 10:00",19.62972774,"Working","OW443"
"2023-05-17 11:00",19.60611775,"Working","OW443"
"2023-05-17 12:00",19.58691376,"Working","OW443"
"2023-05-17 13:00",19.57421376,"Working","OW443"
"2023-05-17 14:00",19.57101576,"Working","OW443"
"2023-05-17 15:00",19.57149178,"Working","OW443"
"2023-05-17 16:00",19.58066981,"Working","OW443"
"2023-05-17 17:00",19.58791187,"Working","OW443"
"2023-05-17 18:00",19.59423995,"Working","OW443"
"2023-05-17 19:00",19.59192409,"Working","OW443"
"2023-05-17 20:00",19.57909224,"Working","OW443"
"2023-05-17 21:00",19.56066238,"Working","OW443"
"2023-05-17 22:00",19.54453053,"Working","OW443"
"2023-05-17 23:00",19.52226872,"Working","OW443"
"2023-05-18 00:00",19.50701489,"Working","OW443"
"2023-05-18 01:00",19.50037105,"Working","OW443"
"2023-05-18 02:00",19.50268715,"Working","OW443"
"2023-05-18 03:00",19.50861923,"Working","OW443"
"2023-05-18 04:00",19.5255412,"Working","OW443"
"2023-05-18 05:00",19.54138315,"Working","OW443"
"2023-05-18 06:00",19.55413509,"Working","OW443"
"2023-05-18 07:00",19.55568504,"Working","OW443"
"2023-05-18 08:00",19.55069503,"Working","OW443"
"2023-05-18 09:00",19.540923,"Working","OW443"
"2023-05-18 10:00",19.519721,"Working","OW443"
"2023-05-18 11:00",19.49785096,"Working","OW443"
"2023-05-18 12:00",19.47537693,"Working","OW443"
"2023-05-18 13:00",19.46124086,"Working","OW443"
"2023-05-18 14:00",19.45972277,"Working","OW443"
"2023-05-18 15:00",19.4650827,"Working","OW443"
"2023-05-18 16:00",19.47914463,"Working","OW443"
"2023-05-18 17:00",19.49399657,"Working","OW443"
"2023-05-18 18:00",19.50603253,"Working","OW443"
"2023-05-18 19:00",19.5109585,"Working","OW443"
"2023-05-18 20:00",19.50809646,"Working","OW443"
"2023-05-18 21:00",19.50153441,"Working","OW443"
"2023-05-18 22:00",19.48169646,"Working","OW443"
"2023-05-18 23:00",19.46157049,"Working","OW443"
"2023-05-19 00:00",19.44086649,"Working","OW443"
"2023-05-19 01:00",19.42879846,"Working","OW443"
"2023-05-19 02:00",19.44305639,"Working","OW443"
"2023-05-19 03:00",19.50384029,"Working","OW443"
"2023-05-19 04:00",19.61156415,"Working","OW443"
"2023-05-19 05:00",19.73337403,"Working","OW443"
"2023-05-19 06:00",19.84654595,"Working","OW443"
"2023-05-19 07:00",19.94432985,"Working","OW443"
"2023-05-19 08:00",20.02361975,"Working","OW443"
"2023-05-19 09:00",20.08118767,"Working","OW443"
"2023-05-19 10:00",20.12096159,"Working","OW443"
"2023-05-19 11:00",20.14774549,"Working","OW443"
"2023-05-19 12:00",20.16444139,"Working","OW443"
"2023-05-19 13:00",20.18376525,"Working","OW443"
"2023-05-19 14:00",20.20545714,"Working","OW443"
"2023-05-19 15:00",20.23223305,"Working","OW443"
"2023-05-19 16:00",20.26158699,"Working","OW443"
"2023-05-19 17:00",20.29541896,"Working","OW443"
"2023-05-19 18:00",20.32391696,"Working","OW443"
"2023-05-19 19:00",20.34679099,"Working","OW443"
"2023-05-19 20:00",20.35872307,"Working","OW443"
"2023-05-19 21:00",20.36415714,"Working","OW443"
"2023-05-19 22:00",20.35765326,"Working","OW443"
"2023-05-19 23:00",20.34301941,"Working","OW443"
"2023-05-20 00:00",20.32549355,"Working","OW443"
"2023-05-20 01:00",20.32829167,"Working","OW443"
"2023-05-20 02:00",20.34399578,"Working","OW443"
"2023-05-20 03:00",20.38711576,"Working","OW443"
"2023-05-20 04:00",20.44897569,"Working","OW443"
"2023-05-20 05:00",20.50771564,"Working","OW443"
"2023-05-20 06:00",20.55524161,"Working","OW443"
"2023-05-20 07:00",20.59372552,"Working","OW443"
"2023-05-20 08:00",20.61173151,"Working","OW443"
"2023-05-20 09:00",20.62009943,"Working","OW443"
"2023-05-20 10:00",20.61435137,"Working","OW443"
"2023-05-20 11:00",20.6012213,"Working","OW443"
"2023-05-20 12:00",20.57866924,"Working","OW443"
"2023-05-20 13:00",20.56071108,"Working","OW443"
"2023-05-20 14:00",20.55541296,"Working","OW443"
"2023-05-20 15:00",20.55192295,"Working","OW443"
"2023-05-20 16:00",20.55327101,"Working","OW443"
"2023-05-20 17:00",20.55964304,"Working","OW443"
"2023-05-20 18:00",20.57816502,"Working","OW443"
"2023-05-20 19:00",20.59082506,"Working","OW443"
"2023-05-20 20:00",20.59757113,"Working","OW443"
"2023-05-20 21:00",20.59258522,"Working","OW443"
"2023-05-20 22:00",20.57886935,"Working","OW443"
"2023-05-20 23:00",20.55362352,"Working","OW443"
"2023-05-21 00:00",20.52810366,"Working","OW443"
"2023-05-21 01:00",20.49791576,"Working","OW443"
"2023-05-21 02:00",20.48463174,"Working","OW443"
"2023-05-21 03:00",20.50070565,"Working","OW443"
"2023-05-21 04:00",20.53887158,"Working","OW443"
"2023-05-21 05:00",20.59045349,"Working","OW443"
"2023-05-21 06:00",20.63601142,"Working","OW443"
"2023-05-21 07:00",20.67573739,"Working","OW443"
"2023-05-21 08:00",20.70368534,"Working","OW443"
"2023-05-21 09:00",20.72143128,"Working","OW443"
"2023-05-21 10:00",20.72606325,"Working","OW443"
"2023-05-21 11:00",20.72343517,"Working","OW443"
"2023-05-21 12:00",20.7117891,"Working","OW443"
"2023-05-21 13:00",20.70335303,"Working","OW443"
"2023-05-21 14:00",20.69572495,"Working","OW443"
"2023-05-21 15:00",20.69368488,"Working","OW443"
"2023-05-21 16:00",20.70062883,"Working","OW443"
"2023-05-21 17:00",20.71071285,"Working","OW443"
"2023-05-21 18:00",20.72874282,"Working","OW443"
"2023-05-21 19:00",20.74857079,"Working","OW443"
"2023-05-21 20:00",20.76984681,"Working","OW443"
"2023-05-21 21:00",20.78519487,"Working","OW443"
"2023-05-21 22:00",20.79325891,"Working","OW443"
"2023-05-21 23:00",20.79582495,"Working","OW443"
"2023-05-22 00:00",20.79482695,"Working","OW443"
"2023-05-22 01:00",20.78242295,"Working","OW443"
"2023-05-22 02:00",20.77442096,"Working","OW443"
"2023-05-22 03:00",20.76996291,"Working","OW443"
"2023-05-22 04:00",20.76888288,"Working","OW443"
"2023-05-22 05:00",20.77301085,"Working","OW443"
"2023-05-22 06:00",20.77753283,"Working","OW443"
"2023-05-22 07:00",20.77934282,"Working","OW443"
"2023-05-22 08:00",20.77801485,"Working","OW443"
"2023-05-22 09:00",20.76701485,"Working","OW443"
"2023-05-22 10:00",20.75040286,"Working","OW443"
"2023-05-22 11:00",20.73252883,"Working","OW443"
"2023-05-22 12:00",20.70701485,"Working","OW443"
"2023-05-22 13:00",20.67940286,"Working","OW443"
"2023-05-22 14:00",20.6543669,"Working","OW443"
"2023-05-22 15:00",20.63837689,"Working","OW443"
"2023-05-22 16:00",20.63210686,"Working","OW443"
"2023-05-22 17:00",20.63430286,"Working","OW443"
"2023-05-22 18:00",20.64393083,"Working","OW443"
"2023-05-22 19:00",20.6569588,"Working","OW443"
"2023-05-22 20:00",20.66634681,"Working","OW443"
"2023-05-22 21:00",20.67481685,"Working","OW443"
"2023-05-22 22:00",20.69085292,"Working","OW443"
"2023-05-22 23:00",20.71290497,"Working","OW443"
"2023-05-23 00:00",20.75450497,"Working","OW443"
"2023-05-23 01:00",20.80610497,"Working","OW443"
"2023-05-23 02:00",20.87211696,"Working","OW443"
"2023-05-23 03:00",20.95304892,"Working","OW443"
"2023-05-23 04:00",21.04448688,"Working","OW443"
"2023-05-23 05:00",21.13071884,"Working","OW443"
"2023-05-23 06:00",21.21002084,"Working","OW443"
"2023-05-23 07:00",21.28166479,"Working","OW443"
"2023-05-23 08:00",21.34038477,"Working","OW443"
"2023-05-23 09:00",21.3818608,"Working","OW443"
"2023-05-23 10:00",21.4036669,"Working","OW443"
"2023-05-23 11:00",21.41414293,"Working","OW443"
"2023-05-23 12:00",21.41667689,"Working","OW443"
"2023-05-23 13:00",21.41643483,"Working","OW443"
"2023-05-23 14:00",21.41263882,"Working","OW443"
"2023-05-23 15:00",21.40830086,"Working","OW443"
"2023-05-23 16:00",21.4065709,"Working","OW443"
"2023-05-23 17:00",21.41075092,"Working","OW443"
"2023-05-23 18:00",21.42673494,"Working","OW443"
"2023-05-23 19:00",21.46021296,"Working","OW443"
"2023-05-23 20:00",21.50508899,"Working","OW443"
"2023-05-23 21:00",21.54956901,"Working","OW443"
"2023-05-23 22:00",21.57872307,"Working","OW443"
"2023-05-23 23:00",21.59154316,"Working","OW443"
"2023-05-24 00:00",21.59119521,"Working","OW443"
"2023-05-24 01:00",21.58755526,"Working","OW443"
"2023-05-24 02:00",21.59424527,"Working","OW443"
"2023-05-24 03:00",21.61273728,"Working","OW443"
"2023-05-24 04:00",21.64115326,"Working","OW443"
"2023-05-24 05:00",21.66416525,"Working","OW443"
"2023-05-24 06:00",21.6743173,"Working","OW443"
"2023-05-24 07:00",21.68130931,"Working","OW443"
"2023-05-24 08:00",21.68220132,"Working","OW443"
"2023-05-24 09:00",21.67048534,"Working","OW443"
"2023-05-24 10:00",21.65228733,"Working","OW443"
"2023-05-24 11:00",21.62058134,"Working","OW443"
"2023-05-24 12:00",21.58522329,"Working","OW443"
"2023-05-24 13:00",21.5527072,"Working","OW443"
"2023-05-24 14:00",21.51674316,"Working","OW443"
"2023-05-24 15:00",21.47781719,"Working","OW443"
"2023-05-24 16:00",21.4428012,"Working","OW443"
"2023-05-24 17:00",21.41558722,"Working","OW443"
"2023-05-24 18:00",21.39188922,"Working","OW443"
"2023-05-24 19:00",21.37517723,"Working","OW443"
"2023-05-24 20:00",21.3582213,"Working","OW443"
"2023-05-24 21:00",21.34224139,"Working","OW443"
"2023-05-24 22:00",21.32085748,"Working","OW443"
"2023-05-24 23:00",21.29664761,"Working","OW443"
"2023-05-25 00:00",21.2645637,"Working","OW443"
"2023-05-25 01:00",21.24002386,"Working","OW443"
"2023-05-25 02:00",21.23865394,"Working","OW443"
"2023-05-25 03:00",21.252104,"Working","OW443"
"2023-05-25 04:00",21.28648402,"Working","OW443"
"2023-05-25 05:00",21.32251998,"Working","OW443"
"2023-05-25 06:00",21.34845205,"Working","OW443"
"2023-05-25 07:00",21.36874207,"Working","OW443"
"2023-05-25 08:00",21.38184207,"Working","OW443"
"2023-05-25 09:00",21.38634207,"Working","OW443"
"2023-05-25 10:00",21.38053407,"Working","OW443"
"2023-05-25 11:00",21.36069212,"Working","OW443"
"2023-05-25 12:00",21.33470211,"Working","OW443"
"2023-05-25 13:00",21.30744207,"Working","OW443"
"2023-05-25 14:00",21.27695006,"Working","OW443"
"2023-05-25 15:00",21.24503208,"Working","OW443"
"2023-05-25 16:00",21.21550011,"Working","OW443"
"2023-05-25 17:00",21.19048613,"Working","OW443"
"2023-05-25 18:00",21.16924018,"Working","OW443"
"2023-05-25 19:00",21.14875628,"Working","OW443"
"2023-05-25 20:00",21.13409634,"Working","OW443"
"2023-05-25 21:00",21.11587448,"Working","OW443"
"2023-05-25 22:00",21.09415262,"Working","OW443"
"2023-05-25 23:00",21.06801478,"Working","OW443"